Theta_e
332 333 333 333 333 332 330 330 328 329 332 332 331 331 329 329 328 330 334 335 335 335 334 333 332 330 329 330 330 330 327 326 326 326 326 325 325 325 326 327 327 326 327 327 328 328 329 328 325 320 315 314 315 314 311 313 315 314 315 316 316 317 317 316 317 319 318 318 319 319 319 319 319 318 318 319 320 320 320 319 318 318 319 319 319
333 333 333 332 332 331 330 329 328 328 332 332 331 331 330 330 329 330 334 334 334 334 334 333 332 331 330 331 331 330 328 328 327 327 328 327 325 325 327 326 326 327 327 328 329 330 330 329 329 325 321 316 312 310 309 311 313 312 313 312 313 316 318 318 318 319 318 317 319 319 319 318 318 318 318 318 319 319 320 319 318 318 318 319 319
334 333 334 333 332 331 330 329 328 329 331 332 331 331 331 331 331 332 333 333 333 334 334 333 332 331 331 332 331 330 330 329 328 328 328 328 328 327 326 324 325 328 328 328 329 330 331 331 330 329 327 325 321 318 314 313 315 316 318 317 315 314 315 317 318 317 315 315 316 317 318 318 318 318 317 317 318 318 319 319 319 318 318 318 319
335 334 334 334 332 330 330 329 328 329 330 330 331 330 331 332 332 332 333 332 332 334 334 332 331 331 331 332 331 330 331 330 329 328 327 328 328 327 327 325 325 328 328 328 329 330 331 331 331 331 330 329 327 325 321 320 320 322 323 322 320 316 313 313 314 315 314 314 313 312 314 315 316 317 317 317 317 318 318 318 319 319 318 318 319
336 335 335 334 332 331 331 330 330 330 330 330 330 330 330 331 331 331 332 332 331 333 334 332 331 331 331 332 331 331 331 330 329 328 328 327 325 324 326 326 326 328 328 328 329 330 331 330 331 331 331 331 330 328 326 324 324 325 325 325 323 319 314 311 311 313 313 313 312 310 309 309 310 312 315 316 316 317 317 318 318 318 319 319 318
336 335 335 333 332 332 332 331 331 331 331 331 331 330 330 330 331 331 331 331 331 333 333 332 331 330 331 331 331 331 331 330 329 328 328 326 323 323 325 326 326 328 328 328 329 329 330 330 330 331 331 331 331 330 329 327 326 326 326 326 325 321 316 312 311 312 312 314 314 313 311 309 309 310 311 313 314 315 316 318 318 318 318 318 318
336 336 335 333 332 332 333 332 332 332 331 331 332 332 331 330 330 330 331 331 332 332 333 332 331 330 330 331 332 331 331 330 329 328 327 324 324 325 326 326 327 328 328 328 329 329 330 330 330 330 330 330 330 330 330 329 328 327 327 327 326 324 319 316 316 316 318 319 319 318 317 316 316 316 316 315 315 314 314 315 317 318 318 318 318
336 336 334 333 332 333 334 333 332 332 332 331 332 333 332 331 331 331 331 332 332 332 332 331 330 330 330 331 332 332 331 329 328 328 326 324 324 327 328 328 328 328 329 329 329 329 329 329 329 329 329 330 330 330 330 330 329 328 327 327 327 326 323 321 322 323 323 324 323 323 322 321 322 321 321 320 319 318 316 314 315 316 318 318 318
336 336 334 333 333 334 333 333 333 333 333 333 333 333 332 332 332 332 332 332 332 332 331 331 330 330 330 330 332 332 331 329 328 326 326 325 324 326 328 328 328 328 328 328 328 327 327 327 327 328 328 329 329 329 330 330 330 328 328 328 328 328 326 324 324 324 325 324 324 324 323 323 324 323 322 322 322 321 321 319 316 316 317 318 317
336 336 334 334 334 334 333 333 334 334 334 333 333 333 332 333 332 332 332 332 332 331 330 330 329 330 331 331 332 332 330 329 327 325 325 326 326 326 327 327 328 328 328 327 326 325 324 323 324 324 325 326 327 329 330 330 330 329 329 329 328 328 328 327 326 325 324 325 325 325 325 324 324 324 323 323 323 323 322 322 320 319 318 317 317
335 335 335 334 334 333 333 333 335 335 334 333 333 332 332 332 332 332 332 331 331 331 330 329 329 330 331 331 331 332 331 330 328 326 326 327 327 327 327 328 328 327 327 326 324 322 320 320 320 320 320 321 324 328 329 330 330 330 330 329 329 328 328 327 327 325 325 325 325 325 325 325 325 325 324 324 324 324 322 322 322 321 319 317 318
335 335 335 334 334 332 332 333 334 335 334 333 333 332 332 332 332 332 331 331 330 330 330 329 329 330 331 331 331 332 331 331 329 328 328 327 327 328 328 328 328 327 326 323 322 322 322 322 322 321 320 320 323 327 328 329 329 329 329 329 329 329 328 328 328 327 326 326 326 326 326 325 325 326 326 325 325 325 324 322 322 321 320 319 320
332 334 333 333 332 331 330 331 333 334 333 333 332 332 332 332 332 331 330 330 330 329 329 329 329 330 330 330 330 330 330 330 330 329 330 329 328 329 329 329 328 327 325 322 323 325 325 324 324 324 324 324 326 327 328 328 328 328 329 329 328 329 329 328 328 327 327 327 326 326 325 325 326 326 326 325 325 325 324 322 321 321 320 321 321
330 330 330 330 330 329 328 328 332 334 333 332 332 332 332 332 331 330 330 330 329 329 329 329 329 329 328 328 328 329 328 328 329 329 330 330 329 329 330 329 328 326 324 324 325 326 326 326 325 326 326 327 327 327 327 328 328 328 328 328 328 328 328 328 328 328 327 327 326 326 326 325 326 326 325 324 324 324 323 322 321 321 321 322 322
332 330 329 329 328 328 327 327 331 333 333 332 332 333 332 331 331 331 330 330 329 328 329 328 329 329 329 329 328 329 328 328 328 329 330 330 329 329 330 329 328 326 326 326 326 327 327 327 326 326 327 327 327 327 327 326 326 326 327 327 328 328 328 328 328 327 327 327 326 326 325 325 324 323 321 320 320 321 322 322 322 321 322 322 322
333 333 331 329 328 329 328 328 330 332 332 331 331 333 332 331 331 331 330 329 329 328 329 329 329 329 329 329 329 329 330 329 328 328 329 329 329 329 330 330 329 327 327 328 327 327 327 326 325 326 326 326 326 326 325 325 325 325 325 326 327 327 328 327 327 327 327 326 326 324 321 319 317 314 310 311 316 318 320 321 322 322 322 321 321
333 333 331 329 330 331 328 329 331 332 332 331 331 333 332 331 331 331 331 330 329 328 329 329 329 329 329 329 329 330 331 329 329 329 328 328 329 329 329 330 329 328 328 328 327 327 327 326 325 326 326 326 326 325 325 324 323 323 324 325 326 326 327 327 326 326 326 325 322 318 314 310 307 305 307 313 319 321 321 322 322 322 321 320 320
333 333 331 331 333 332 330 331 333 332 332 331 331 332 332 332 332 331 331 330 329 328 329 329 329 329 328 328 328 329 329 328 329 329 328 327 328 328 328 329 328 329 329 328 327 327 327 326 325 326 325 325 325 324 323 322 322 322 322 322 323 324 325 325 324 323 323 320 316 311 306 304 303 305 309 315 320 321 321 322 321 320 320 319 318
332 333 332 332 332 331 331 332 332 332 332 332 332 332 332 332 332 331 331 330 329 329 329 330 329 328 328 328 327 328 327 328 329 329 329 328 327 327 327 327 327 328 329 328 328 328 327 326 324 325 325 325 324 323 321 320 320 319 320 321 321 320 320 320 319 318 316 313 309 305 303 303 303 304 306 312 316 319 320 320 320 320 319 317 313
331 332 331 331 330 329 331 331 332 332 332 332 332 332 332 332 331 331 331 330 330 329 329 330 330 329 328 328 329 329 327 328 327 327 329 328 327 326 326 327 327 327 328 329 329 328 327 325 324 324 324 324 324 322 320 318 316 316 317 319 320 318 317 316 315 313 310 307 304 302 303 303 302 302 302 306 311 315 317 317 317 316 313 309 304
331 331 329 329 329 330 331 331 332 333 333 332 332 332 332 332 332 331 331 331 330 330 329 330 330 329 329 329 330 329 327 327 327 327 327 328 328 326 324 326 326 326 327 328 328 327 327 325 324 324 323 323 322 321 318 314 311 311 313 315 316 316 315 313 311 308 306 304 303 303 303 301 300 300 300 301 304 307 308 308 307 305 303 300 299
330 329 328 328 330 331 332 332 333 333 333 332 331 332 332 332 332 331 331 331 331 330 329 330 330 330 329 330 329 328 326 326 326 327 326 325 327 325 323 324 324 324 326 327 327 327 326 325 324 324 324 322 321 319 314 308 306 307 308 311 312 311 310 307 306 304 303 303 303 302 301 300 299 299 299 299 299 300 300 300 300 299 299 298 298
330 330 329 330 331 332 332 332 332 332 333 332 331 331 331 332 332 331 331 332 331 331 330 330 330 330 329 330 330 328 327 326 326 327 325 324 325 324 321 323 324 323 325 327 327 327 326 325 324 323 322 321 320 317 310 304 303 304 306 309 310 307 305 304 304 303 303 302 302 300 299 299 299 298 298 298 299 300 301 300 300 300 299 298 298
332 331 331 331 330 331 331 332 333 332 331 331 330 330 332 332 331 331 331 332 332 331 330 330 330 330 329 329 330 329 328 327 327 327 326 325 325 322 319 322 323 323 325 327 327 327 326 325 323 321 320 319 318 314 306 302 303 304 305 307 307 305 304 304 303 302 302 301 300 299 299 299 299 299 300 301 303 304 304 302 300 301 301 300 300
332 332 331 330 330 330 331 332 333 332 330 330 330 331 332 332 331 330 330 331 332 332 331 330 330 331 330 329 330 329 328 328 327 327 326 325 324 320 319 322 322 321 323 326 326 326 326 325 323 321 319 317 315 310 304 302 304 304 304 305 305 304 304 303 302 301 300 300 299 300 299 299 301 301 301 302 303 303 302 301 301 301 301 302 301
332 331 330 330 331 331 332 332 333 332 331 330 331 331 332 332 331 330 329 331 331 332 331 331 330 330 330 330 330 329 328 328 327 327 326 325 323 320 319 320 320 319 321 324 325 324 324 324 323 321 319 316 311 307 303 303 304 305 304 304 303 303 302 301 300 300 299 300 300 301 301 301 301 301 302 303 303 303 303 304 304 303 303 303 302
331 331 330 330 330 331 332 332 332 332 331 331 331 332 331 331 331 330 329 330 330 331 332 331 331 330 330 330 330 329 328 327 327 327 326 325 323 321 320 320 319 317 317 319 322 323 323 323 322 321 320 316 310 305 302 303 305 305 303 302 302 301 300 300 300 300 301 301 302 303 303 304 304 304 305 306 306 307 307 307 307 307 306 305 305
331 330 329 329 330 331 332 332 332 331 331 332 332 331 331 330 330 329 329 330 330 330 331 331 331 330 330 330 329 329 328 327 328 327 326 325 323 322 321 320 319 316 316 317 318 320 322 322 321 321 321 317 310 305 303 304 305 304 302 300 300 300 300 300 300 301 302 303 304 305 306 306 307 308 308 308 309 309 309 309 309 309 308 307 307
331 330 329 329 330 332 332 332 332 332 332 332 331 330 330 330 330 329 329 330 330 330 330 331 331 331 330 330 329 329 328 328 328 327 326 324 322 322 321 321 320 317 317 319 317 317 319 321 321 321 321 318 312 306 303 304 305 304 301 300 300 300 300 301 302 303 304 305 306 307 308 308 309 309 309 309 310 310 310 310 309 309 309 308 308
330 330 329 330 331 332 332 332 332 333 332 331 330 330 329 329 330 329 329 330 331 331 331 331 331 330 330 330 329 328 328 328 327 327 326 324 321 321 322 321 320 317 316 317 317 315 318 321 321 321 320 317 313 307 303 304 306 303 300 300 300 300 301 302 303 305 306 307 308 308 309 309 309 310 310 310 310 310 310 309 309 309 309 309 309
330 330 330 331 332 332 332 332 332 333 332 330 330 329 328 329 330 329 329 330 331 331 331 331 331 330 330 330 329 329 328 328 327 327 326 325 322 321 321 319 319 318 316 315 315 315 317 320 320 320 318 316 313 308 304 305 306 303 300 300 301 301 302 303 305 306 307 308 308 309 309 309 310 310 310 310 310 310 309 309 309 309 308 308 308
330 330 331 332 332 332 332 332 332 332 331 330 329 329 329 329 329 329 329 329 330 331 331 331 331 331 330 330 329 329 328 327 327 327 326 326 324 321 320 319 318 318 316 315 313 313 314 317 319 319 317 314 312 308 304 305 306 303 301 301 301 301 302 304 305 306 307 308 309 309 309 309 309 309 309 309 309 309 309 309 309 308 308 308 308
330 331 332 332 332 332 332 332 332 332 331 331 330 329 329 329 329 330 329 329 330 332 331 331 331 331 331 330 329 329 328 327 327 327 326 326 325 322 320 319 318 317 316 315 313 311 311 313 316 317 315 313 311 307 304 305 306 304 302 301 301 301 302 304 305 307 307 308 308 309 309 309 309 309 309 309 309 309 309 308 308 308 308 308 307
331 331 332 332 331 331 332 331 331 331 331 331 330 330 329 329 329 330 330 329 330 331 331 330 330 330 330 330 330 329 328 327 327 327 326 326 325 323 321 319 318 317 315 315 313 310 309 310 313 313 312 311 310 307 305 305 306 305 303 302 302 302 302 303 305 306 307 308 308 309 309 309 309 309 309 309 309 309 308 308 308 308 308 308 307
332 332 332 331 330 330 331 330 330 331 331 331 330 330 330 329 329 330 330 330 330 331 330 330 329 329 330 330 330 329 327 327 327 327 326 326 325 324 323 321 319 316 315 314 314 312 310 310 311 311 311 310 309 308 306 306 306 305 304 304 304 303 302 303 305 306 307 307 308 308 308 308 309 309 309 309 308 308 308 308 308 308 307 307 307
331 332 331 331 330 330 330 329 329 330 330 330 330 330 330 329 329 330 329 329 329 330 330 329 328 328 329 330 330 329 328 328 328 327 326 326 326 326 325 324 322 318 316 314 313 313 311 310 310 310 311 310 309 308 307 306 306 305 304 304 304 303 303 303 304 305 306 307 307 308 308 308 308 308 308 308 308 308 308 308 308 308 307 307 307
329 332 331 330 330 329 329 329 329 330 329 329 329 328 329 329 329 329 329 329 329 329 329 329 328 328 328 329 329 329 328 328 328 328 327 327 327 327 327 325 324 323 320 316 315 314 313 311 311 310 310 310 309 308 308 307 306 306 305 304 303 303 303 303 304 304 305 306 306 307 307 307 308 308 308 308 308 308 308 308 308 307 307 307 307
328 331 330 329 329 329 329 329 329 329 328 328 328 327 328 328 328 329 329 329 329 329 329 329 328 327 327 328 328 328 328 329 329 328 328 328 328 329 328 326 325 324 323 321 320 319 316 312 311 310 310 310 309 308 309 309 308 307 306 304 304 304 304 304 305 305 305 305 306 306 307 307 307 308 307 308 308 308 308 308 308 308 308 308 307
327 329 328 328 328 328 329 329 328 328 328 328 327 327 327 327 328 329 328 328 329 328 329 328 328 327 327 327 328 328 328 329 329 329 328 328 328 328 327 326 324 324 324 322 321 320 316 311 310 310 310 310 310 309 309 309 308 307 307 305 305 305 305 305 306 307 306 306 307 308 308 309 309 309 309 309 309 309 309 309 309 309 309 308 308
326 327 327 327 327 328 328 328 328 328 328 328 328 327 327 327 328 328 328 328 328 328 328 328 327 328 328 328 328 328 328 328 328 329 329 329 328 327 326 325 324 324 323 322 321 319 314 310 309 309 309 309 309 309 309 309 308 308 308 307 307 307 306 306 307 308 307 307 308 309 310 310 310 310 310 310 311 311 311 311 311 311 310 310 310
326 326 326 326 327 328 328 328 328 328 328 327 327 327 327 327 327 328 328 327 327 327 328 328 327 328 328 328 329 329 328 328 328 329 329 328 327 326 325 324 324 323 322 321 320 317 312 309 309 309 309 309 310 309 309 309 309 310 310 308 308 308 307 306 307 308 308 308 309 309 310 311 311 311 311 311 311 311 311 311 311 311 311 311 311
326 326 326 325 325 326 327 327 327 327 327 326 326 326 326 326 326 327 327 327 326 326 326 327 327 328 328 329 330 330 330 329 329 328 327 325 324 324 324 323 323 322 321 320 319 316 312 310 309 309 309 309 310 309 310 310 310 310 310 309 309 308 307 306 307 309 309 308 309 309 311 311 311 311 311 311 311 312 311 312 312 312 312 312 311
325 324 324 324 324 324 325 326 326 327 326 325 325 325 325 325 325 325 325 326 325 325 325 326 327 328 328 329 329 329 329 328 328 328 325 322 321 322 323 322 321 320 319 319 318 316 313 311 310 309 310 310 310 310 310 310 310 309 309 309 309 309 307 306 307 309 310 310 310 310 311 312 312 312 313 313 313 313 313 313 313 313 313 312 312
323 322 322 323 323 324 325 325 325 325 324 323 323 322 323 323 323 324 324 323 324 325 325 325 325 326 327 328 328 328 328 327 326 325 321 318 318 319 319 318 317 317 317 317 316 314 313 311 310 310 310 310 311 310 310 310 310 310 310 310 309 308 308 307 307 309 310 311 311 310 312 315 315 315 316 316 315 315 315 314 314 314 314 314 313
322 321 321 322 322 323 324 324 324 323 322 322 322 321 321 321 321 322 322 322 323 324 324 324 325 326 326 326 326 327 326 324 323 321 318 316 316 317 316 316 316 315 315 315 315 315 314 313 313 313 313 314 315 315 314 314 314 315 315 314 313 311 310 309 310 312 314 315 315 314 315 317 317 316 317 316 316 316 317 316 316 316 316 316 316
319 319 319 320 320 320 321 321 321 321 321 321 321 321 321 320 320 321 321 322 322 323 324 324 325 324 323 324 325 325 323 320 318 317 316 315 315 315 315 315 315 314 314 314 314 314 314 314 315 315 315 316 317 317 317 317 318 318 318 318 317 316 315 315 316 317 317 317 317 316 316 317 316 317 317 317 316 316 316 316 317 317 317 317 317
315 316 316 316 316 316 316 317 318 318 319 320 321 321 321 321 320 320 321 321 322 322 322 322 322 321 320 320 321 319 317 316 315 314 313 314 315 315 315 315 314 314 314 314 314 315 315 315 316 316 316 316 317 316 317 317 317 318 318 317 316 315 315 315 315 315 315 315 315 315 315 315 315 315 315 314 315 315 315 316 316 316 317 317 317
311 311 311 311 311 312 312 313 314 316 318 319 320 320 320 320 320 320 320 320 320 320 319 318 318 317 317 316 316 315 315 315 315 315 315 315 316 316 316 315 314 314 314 313 313 312 313 313 313 314 314 313 313 313 313 313 313 312 311 310 309 309 309 309 310 311 311 311 311 312 313 313 313 314 314 314 315 315 315 315 316 316 316 317 317
307 306 306 306 307 309 310 311 312 314 316 319 320 319 320 320 320 320 319 318 318 317 316 316 316 316 315 315 315 316 317 318 318 319 319 318 317 317 316 314 312 311 309 307 306 306 306 306 307 307 307 307 307 307 307 307 307 306 305 305 305 306 306 306 308 308 307 308 310 310 311 312 313 313 313 313 313 312 312 311 312 313 314 315 315
304 303 302 302 304 306 308 309 310 313 316 318 319 319 319 319 319 319 319 317 316 315 314 313 313 313 312 313 314 315 315 315 314 315 316 317 317 317 315 312 308 305 303 302 302 302 303 303 303 303 304 304 304 304 304 304 304 304 304 304 304 304 304 305 306 306 306 307 308 307 308 309 310 310 311 311 310 310 310 310 311 312 313 313 313
304 303 302 300 301 303 305 306 308 311 314 315 317 317 316 316 316 317 317 316 314 312 311 310 310 309 309 309 310 311 311 309 309 308 309 311 311 309 309 308 305 303 301 301 302 302 302 303 303 303 303 303 304 304 304 304 304 304 304 304 304 303 303 303 303 304 306 307 305 303 305 306 306 307 308 310 311 311 310 311 311 312 312 312 312
Wind_Speed
15 15 15 14 13 12 11 11 11 14 16 16 16 17 18 18 17 14 10 8 6 6 6 7 8 10 12 13 13 12 13 14 13 13 12 11 11 12 12 11 10 11 11 11 11 10 9 10 12 14 13 12 10 9 9 10 9 9 8 8 8 8 8 9 9 9 9 10 11 11 10 11 12 12 13 14 14 14 15 15 16 16 17 18 18
17 16 15 15 14 13 12 12 13 15 16 16 16 16 17 17 16 14 11 9 7 7 7 8 8 9 11 12 12 13 13 14 13 13 12 12 11 11 11 11 13 13 12 12 11 10 9 9 10 13 14 13 12 11 10 10 10 10 10 10 10 9 8 8 9 9 9 10 11 10 10 11 11 11 12 13 13 14 14 15 15 16 17 17 18
19 18 16 16 15 14 13 13 14 17 16 16 15 15 16 16 15 13 12 10 9 8 8 9 9 10 12 12 12 14 14 14 13 12 11 11 11 11 12 12 14 15 13 11 10 8 8 7 7 9 11 12 12 11 11 11 11 11 11 12 11 10 9 8 8 8 9 10 10 10 10 10 11 11 11 12 12 13 14 15 15 16 17 17 17
20 19 18 17 16 15 14 14 15 16 16 15 15 15 15 15 13 12 12 11 9 8 9 10 10 11 13 13 14 14 14 13 12 11 10 11 12 11 12 14 15 16 14 11 9 8 7 6 5 6 7 8 9 10 10 11 11 11 11 11 12 11 10 9 9 9 9 9 9 9 10 10 10 10 11 11 12 13 14 14 15 15 16 16 16
21 21 19 18 18 17 15 15 15 15 15 15 15 15 15 14 13 12 12 11 10 10 11 11 12 13 14 14 14 14 14 14 12 11 11 11 12 12 13 14 15 15 13 11 10 8 6 4 5 5 5 5 6 7 8 9 9 9 9 9 10 10 10 10 10 10 9 9 9 10 10 11 11 10 11 11 11 13 13 14 14 15 15 15 15
22 22 21 20 20 19 17 15 15 15 14 14 14 14 15 15 14 13 12 12 11 12 13 13 13 14 15 15 15 15 14 14 13 12 11 11 13 13 13 14 15 14 12 11 9 6 4 4 5 5 4 4 4 5 6 6 7 6 6 7 7 9 10 11 11 11 10 10 10 11 12 13 13 13 12 12 11 12 12 13 13 14 14 14 14
23 24 23 22 22 21 19 16 15 14 14 14 13 13 15 16 15 15 14 13 14 14 15 15 14 15 15 15 15 15 15 14 14 12 12 13 14 14 14 14 14 13 12 10 7 5 4 4 4 4 4 3 3 4 5 5 5 5 5 6 6 7 10 11 12 12 12 12 12 12 13 14 14 14 14 14 13 12 12 12 12 13 13 13 13
24 25 24 23 23 22 18 15 15 15 14 14 13 13 15 15 14 14 14 15 16 16 16 16 15 15 16 16 16 16 16 15 14 13 13 14 14 14 13 13 12 11 9 7 6 5 4 4 3 4 4 3 3 3 4 6 6 6 5 5 6 6 9 10 11 12 12 11 11 11 11 12 12 13 14 14 14 14 13 13 12 12 12 12 12
24 25 25 24 23 21 17 15 16 16 15 15 13 12 14 15 14 14 15 16 18 18 17 16 16 15 15 16 17 17 16 16 15 14 14 15 14 13 12 10 9 8 7 6 5 5 4 3 3 4 3 3 3 2 2 5 7 7 6 5 6 6 7 9 9 9 9 9 9 9 8 8 8 10 12 12 13 13 13 12 12 12 11 10 11
26 27 27 26 23 20 18 16 17 17 16 16 14 12 14 15 16 16 16 17 19 19 17 17 16 15 15 16 18 18 16 16 15 14 15 15 13 12 10 8 8 7 6 5 4 4 4 3 3 3 3 3 3 2 2 3 5 7 7 6 6 5 5 6 7 7 8 8 8 7 7 6 5 6 9 9 10 11 11 11 12 12 11 10 10
27 28 28 27 23 21 20 17 15 16 16 14 14 14 15 16 17 17 18 17 18 19 18 17 16 15 15 15 17 17 17 16 15 15 15 14 12 11 9 8 7 7 6 5 5 4 3 3 3 3 3 2 2 2 2 2 3 5 6 6 6 7 5 6 7 7 6 5 5 5 5 4 2 3 6 6 6 7 9 10 12 12 12 12 12
27 29 28 27 25 23 22 19 15 15 16 15 15 15 15 17 17 18 19 17 17 18 18 18 16 14 13 14 14 15 16 17 16 15 14 12 11 10 8 7 7 8 7 6 6 5 4 3 3 3 3 3 2 3 3 3 4 4 4 5 6 7 6 6 7 7 6 5 3 3 3 2 1 1 3 4 3 4 7 8 9 11 12 13 13
26 28 26 24 25 25 22 19 17 16 16 16 15 14 14 17 17 18 18 18 18 17 18 20 18 13 11 11 11 10 11 13 15 15 14 13 11 9 8 8 9 9 8 7 6 5 5 5 4 4 4 4 4 5 5 6 6 5 5 4 5 5 6 7 7 7 8 6 4 2 1 2 2 3 3 3 3 4 5 6 7 9 11 11 10
22 24 23 19 20 22 22 19 18 18 16 15 16 15 16 18 19 17 17 18 18 19 21 19 15 12 9 8 6 5 5 7 10 12 14 13 11 9 8 9 10 10 10 8 6 6 5 5 5 5 6 6 7 8 8 9 9 8 7 6 5 5 6 7 7 7 8 7 4 3 3 4 5 6 5 4 5 5 6 6 7 8 9 9 9
19 18 18 18 18 20 21 20 19 18 16 16 17 18 19 20 20 18 17 17 17 20 23 18 14 15 10 5 2 2 3 3 4 8 12 13 12 11 10 11 11 11 11 8 7 7 5 4 5 6 6 7 9 10 10 11 11 10 9 8 7 7 7 8 8 8 8 7 6 6 6 6 6 5 4 5 6 6 7 7 7 7 8 8 8
19 16 16 20 21 19 20 20 19 19 18 18 19 20 21 19 19 19 20 19 16 19 22 16 18 19 9 2 2 2 0 1 4 4 8 11 12 12 12 11 12 12 12 10 9 7 5 4 5 7 7 9 10 11 11 11 11 11 11 10 10 9 9 10 10 10 11 10 8 7 7 6 5 4 4 6 7 8 8 8 8 8 8 7 6
20 18 18 21 21 19 20 20 19 20 19 19 20 20 20 19 18 19 22 21 18 21 21 16 20 21 12 6 3 1 1 3 6 3 5 8 9 11 12 11 12 12 11 12 11 7 4 5 6 7 8 9 9 10 10 10 10 10 11 11 11 11 11 12 11 11 11 10 9 8 7 6 5 5 7 10 11 11 11 10 10 10 7 4 3
20 19 20 22 20 19 19 18 18 20 19 19 20 21 20 18 18 20 23 22 20 22 21 18 19 19 14 9 4 2 6 7 5 1 3 6 6 8 10 10 11 12 10 11 12 9 6 5 7 8 8 9 9 8 8 8 8 8 9 9 9 10 11 11 10 10 10 9 8 7 7 6 6 7 9 11 12 12 11 10 9 7 5 2 1
21 21 22 22 19 18 17 17 18 18 17 18 19 20 20 18 19 21 23 22 21 23 23 20 20 18 13 10 3 2 11 14 7 3 3 4 5 7 10 9 9 12 12 12 12 11 9 7 7 8 9 9 8 8 7 7 7 7 7 8 8 7 8 9 9 9 9 8 7 7 6 6 7 7 8 10 11 11 10 9 7 5 4 2 2
22 23 22 21 19 18 17 17 18 17 17 18 19 18 19 18 19 21 22 23 22 23 25 22 21 20 16 12 5 3 14 18 14 11 5 2 3 5 8 8 8 10 12 11 11 12 11 9 9 9 9 9 8 7 7 6 6 6 7 7 7 6 7 9 10 9 8 8 7 7 6 6 6 7 8 9 10 9 8 7 5 4 3 3 3
22 23 22 20 18 18 18 18 18 18 18 18 18 18 18 18 19 21 23 23 23 23 25 25 25 24 20 14 7 7 14 15 15 15 7 4 4 3 7 9 7 9 11 12 11 12 12 10 9 9 8 8 8 7 6 6 6 6 6 7 7 7 8 10 10 9 9 8 7 6 6 6 6 7 8 8 8 7 6 6 5 5 4 4 4
22 22 21 19 18 18 19 19 17 18 20 20 19 19 18 18 19 21 22 23 24 24 25 26 26 25 22 16 11 13 13 9 12 15 8 5 4 4 9 11 8 8 11 13 13 12 13 11 9 9 8 8 8 8 7 6 6 6 6 7 7 7 8 9 9 8 8 7 7 7 6 7 7 7 8 8 8 7 7 6 6 6 5 5 6
22 22 21 19 19 20 20 18 17 17 20 21 20 19 18 18 19 21 23 23 24 25 25 25 25 25 23 19 15 17 16 13 16 18 11 7 5 5 10 12 10 10 12 14 14 14 14 11 10 9 8 8 9 8 7 7 8 7 7 7 7 7 7 8 8 7 7 7 7 7 7 7 7 7 8 8 8 8 7 7 7 6 6 7 7
22 22 21 20 20 21 20 18 17 18 20 20 20 19 18 18 19 21 24 25 25 25 26 25 24 25 24 21 18 17 19 19 22 22 18 15 13 9 10 12 9 9 13 16 15 15 16 13 11 9 8 9 9 8 8 8 9 8 7 7 6 6 6 6 7 7 7 7 7 7 7 7 7 8 8 8 8 8 7 7 7 7 7 7 8
23 23 23 21 21 21 20 19 18 19 19 19 19 19 19 19 19 21 24 26 26 25 26 26 25 25 24 22 19 17 19 20 22 23 20 19 19 12 10 13 10 8 12 16 16 15 16 15 13 10 9 9 10 9 9 9 9 8 7 7 6 6 6 6 6 6 7 7 8 8 8 8 8 8 8 8 8 8 7 7 8 8 8 8 8
24 25 24 22 22 21 20 20 20 19 19 20 20 20 20 20 20 21 23 25 26 25 25 25 24 24 24 22 20 19 19 19 21 23 21 20 22 18 12 10 10 11 11 13 16 15 14 17 16 12 11 10 10 10 10 10 10 9 8 7 7 6 6 6 6 7 7 8 8 9 9 9 9 9 9 9 9 8 8 8 8 8 8 8 8
25 25 24 23 23 22 21 21 21 20 20 21 22 21 21 21 21 21 22 24 25 25 24 23 23 24 24 22 20 19 19 19 20 23 24 23 25 26 21 11 6 8 8 9 14 16 15 16 17 15 13 11 11 11 11 11 10 10 9 8 8 8 7 7 7 8 8 8 8 9 9 9 9 9 9 9 9 8 8 8 8 7 7 7 7
26 26 25 24 24 22 22 21 20 19 20 21 22 22 21 21 21 21 21 22 24 25 24 22 22 24 24 21 19 19 18 18 19 21 24 24 25 28 28 20 11 5 4 5 9 13 15 16 17 18 15 12 11 11 12 12 11 10 10 9 8 9 9 9 9 9 8 9 9 9 9 9 9 9 8 8 7 7 6 6 5 5 5 5 5
25 26 26 25 24 22 21 21 19 18 19 20 21 21 20 20 21 21 21 22 22 22 23 22 21 23 25 22 19 18 18 17 18 21 23 23 25 27 28 28 21 10 4 3 6 12 16 18 18 18 17 15 13 12 13 13 12 11 10 10 10 10 10 10 10 10 10 10 10 10 9 9 9 8 7 6 6 5 4 4 3 3 2 2 3
26 26 27 26 24 22 21 20 20 19 18 19 21 21 20 21 21 20 20 21 20 19 21 21 21 22 25 24 19 18 18 17 17 21 22 22 25 27 27 28 27 19 11 6 6 13 18 20 20 18 18 18 15 14 15 14 13 13 12 11 11 11 12 11 11 11 11 11 11 10 10 9 9 8 7 6 5 4 4 3 2 2 1 1 1
26 27 27 25 24 23 22 20 20 19 18 19 20 21 21 21 21 20 20 19 19 19 20 21 21 21 23 24 22 19 18 17 18 20 22 22 24 26 26 26 26 23 19 12 6 12 20 21 22 20 17 18 17 16 16 15 14 14 13 13 13 13 13 13 12 12 12 12 12 11 11 10 10 9 8 7 7 6 6 5 5 4 4 4 4
25 26 26 25 23 22 21 20 19 19 19 19 19 20 20 21 20 20 19 18 18 19 19 20 20 20 21 23 23 21 19 18 19 20 21 22 23 26 26 26 25 22 20 17 9 10 19 21 21 20 18 18 18 17 18 18 16 16 15 14 14 15 15 15 14 14 14 14 13 13 12 12 11 10 10 10 9 9 9 8 8 8 7 7 7
24 26 25 23 21 20 19 18 18 18 20 19 18 18 19 19 19 19 19 18 18 18 18 18 19 19 20 21 22 22 20 19 20 21 20 20 22 25 26 25 25 21 20 19 13 8 14 18 19 20 20 19 19 19 19 19 18 18 17 16 16 17 17 17 16 16 16 15 15 14 14 14 13 13 12 12 12 12 12 12 12 11 11 11 11
24 25 25 23 21 20 19 17 17 17 18 18 17 18 18 18 18 19 19 18 18 18 17 18 19 20 21 21 21 21 19 18 19 21 21 20 21 23 25 25 25 23 21 20 16 11 13 16 18 20 21 21 21 20 20 21 20 19 19 19 19 19 19 19 19 18 18 17 16 16 16 16 16 15 15 15 15 16 15 15 15 15 15 15 15
26 25 25 24 23 21 19 18 17 17 17 16 16 17 18 18 19 19 19 19 20 19 18 18 19 20 21 22 21 20 19 18 18 19 20 21 21 21 22 22 23 24 22 19 18 15 15 17 19 21 22 23 23 21 20 21 20 20 21 20 19 20 20 21 21 20 19 19 18 18 18 18 18 18 18 18 18 19 19 19 19 19 19 19 19
26 25 25 25 24 22 20 19 18 17 16 15 16 17 17 17 19 20 20 20 20 19 19 18 18 20 21 22 22 21 20 19 17 18 18 19 20 21 21 20 20 21 22 21 20 19 17 18 20 22 23 23 23 22 21 21 22 22 22 21 21 22 22 22 22 22 21 21 21 21 21 21 21 21 21 21 22 22 22 23 23 23 23 23 23
25 25 25 26 25 24 24 22 20 18 16 15 15 15 16 16 17 19 20 20 20 19 19 18 18 19 20 22 22 21 21 20 18 18 18 17 18 18 20 21 20 19 20 21 22 21 19 19 21 21 21 21 22 22 22 22 23 23 23 23 23 23 22 22 23 24 23 23 24 24 24 24 24 25 25 25 25 25 26 26 27 27 28 28 28
26 26 26 27 26 27 27 24 22 19 17 16 15 15 15 15 16 17 19 20 19 19 19 18 18 19 20 21 21 21 22 22 20 19 18 17 17 17 18 21 21 20 19 19 19 19 21 22 20 20 21 22 23 23 23 23 23 24 24 25 25 25 25 25 25 25 25 25 26 26 26 26 27 27 28 28 28 29 29 30 30 31 32 32 32
27 27 27 26 25 27 27 25 22 20 19 18 17 16 15 15 15 15 16 17 18 18 18 18 18 19 20 20 21 21 22 22 21 20 18 17 17 16 17 19 21 20 20 18 16 18 21 21 19 20 21 22 23 23 22 22 22 22 23 24 26 27 27 27 27 27 26 27 27 27 27 27 28 29 29 30 30 31 31 32 33 34 35 35 35
27 27 27 27 26 26 26 25 23 22 21 19 19 18 17 16 15 14 14 15 16 17 16 17 17 17 18 19 19 20 21 22 20 18 18 17 17 17 17 18 19 19 19 17 15 18 22 21 20 20 19 20 22 21 18 18 19 22 24 25 27 28 28 28 29 28 28 28 28 28 28 29 30 30 31 31 31 32 32 33 34 35 36 37 38
28 27 28 28 28 28 26 25 24 23 21 20 19 18 17 17 16 15 14 14 15 16 16 15 15 15 15 16 17 17 18 19 18 16 14 15 16 17 17 17 18 18 18 17 16 18 22 21 19 18 16 18 21 21 19 20 22 24 24 25 28 29 27 27 29 29 29 29 29 30 30 30 31 32 32 33 33 33 34 35 36 37 38 39 39
28 27 27 28 28 28 28 26 25 23 21 19 18 17 16 16 16 15 15 15 14 15 15 15 15 15 15 15 16 15 16 17 16 14 13 13 14 15 16 16 17 18 18 17 18 20 22 22 21 19 17 19 22 24 25 25 25 24 22 23 26 27 24 23 27 29 29 28 29 30 30 30 31 32 33 34 34 34 36 37 37 38 39 39 40
26 26 27 27 28 28 27 26 25 23 20 18 16 16 15 15 16 16 15 15 15 15 15 15 16 15 15 14 14 14 14 14 14 15 14 13 13 16 18 19 18 17 16 17 20 21 22 22 21 20 21 21 21 23 25 23 21 21 20 21 22 23 21 19 21 25 24 21 21 23 25 25 25 27 28 29 31 32 34 35 35 36 37 38 39
26 25 26 26 26 26 26 25 24 21 19 17 14 13 13 14 14 15 15 16 17 17 16 16 15 15 14 13 13 12 11 12 14 15 13 11 11 14 16 16 14 12 11 15 18 21 21 19 18 18 18 17 15 16 18 19 18 17 17 18 20 22 21 19 20 21 20 15 14 16 19 20 20 22 24 25 26 28 29 31 31 32 33 34 35
26 25 25 25 24 24 24 23 22 20 19 18 15 14 13 13 13 14 14 16 18 18 17 15 15 14 14 13 13 12 12 14 15 15 14 14 15 16 16 15 14 12 10 10 11 13 14 15 16 14 11 10 9 9 10 10 11 11 10 12 15 16 16 17 17 17 14 13 12 14 16 19 20 23 25 25 24 25 26 27 28 29 30 30 31
24 24 24 23 22 22 22 22 20 19 18 18 17 16 14 13 13 13 14 16 17 17 17 17 16 15 13 13 14 14 15 16 16 17 18 18 17 17 17 17 17 16 15 14 12 11 11 12 13 12 10 9 9 8 6 6 6 6 6 6 6 7 9 9 11 12 12 12 13 13 16 19 20 22 24 24 24 24 25 25 26 27 28 29 30
21 21 21 20 20 19 19 19 19 18 17 17 17 17 16 15 14 13 14 16 17 18 18 17 17 15 14 14 16 17 18 18 18 18 19 19 19 18 18 17 17 16 16 15 14 13 12 11 11 11 10 8 6 5 3 3 3 3 4 4 4 6 7 8 10 12 11 11 11 11 14 17 18 20 25 24 24 25 24 24 25 25 27 29 31
19 18 17 16 17 17 17 17 18 17 16 15 16 16 16 17 16 15 15 17 18 19 18 17 16 16 16 17 18 19 19 19 18 17 18 18 18 18 18 17 16 15 15 15 13 12 11 10 9 8 6 5 3 2 1 2 3 4 4 5 5 5 6 8 9 9 9 10 9 10 14 17 16 19 23 22 22 24 23 22 23 23 24 26 28
19 17 16 14 15 16 15 15 16 16 15 15 16 16 17 18 18 18 18 18 19 19 19 18 18 19 19 19 20 21 21 19 18 17 17 16 16 17 17 17 16 15 14 13 12 11 10 9 8 6 5 4 2 0 1 2 3 4 4 3 4 4 5 5 3 5 8 8 8 10 12 13 11 15 20 22 22 23 23 23 22 21 20 21 23
24 21 19 17 16 16 15 14 15 16 16 16 16 17 18 18 18 20 20 20 20 22 22 22 21 21 20 20 19 20 21 19 17 15 14 14 15 15 15 15 15 15 15 13 12 11 11 10 9 9 8 7 6 6 5 5 4 3 3 4 6 5 7 8 6 7 8 6 7 13 14 12 12 15 19 22 23 22 19 17 17 16 17 19 21
28 25 23 23 22 20 18 17 15 16 17 16 15 17 17 18 19 21 22 22 23 24 24 24 22 21 20 19 18 17 17 16 15 14 12 11 12 12 12 12 14 15 14 12 11 11 11 11 10 10 10 9 9 8 8 7 7 7 7 8 9 8 10 11 10 8 5 4 9 15 17 17 17 17 17 17 16 16 13 12 14 17 19 20 21
Wind_Direction
203 202 201 198 198 203 201 203 199 189 187 182 175 174 173 175 175 170 164 160 146 136 137 137 149 164 166 157 151 148 145 144 141 136 129 126 128 131 129 129 128 122 120 117 113 114 104 88 84 88 95 102 106 103 96 97 98 95 94 95 94 94 91 91 95 92 91 91 89 84 81 81 79 79 82 78 71 70 70 69 69 69 70 68 65
207 206 206 201 198 199 201 203 198 190 189 187 180 176 176 179 179 175 171 168 167 161 157 153 155 168 173 165 156 152 150 148 143 138 131 125 124 129 132 137 141 134 125 122 117 113 107 102 92 88 90 93 98 100 99 99 99 98 95 94 94 94 93 90 89 89 91 91 91 90 88 85 82 81 84 85 79 75 73 71 69 70 72 71 66
212 210 208 204 198 195 198 197 191 187 187 188 185 178 176 180 179 177 177 178 183 180 171 168 162 171 180 174 162 157 154 150 145 140 134 131 132 135 135 135 137 132 127 127 124 121 118 114 104 92 90 91 92 96 100 102 103 103 97 91 87 89 95 98 97 92 88 88 91 93 93 89 88 86 86 87 85 82 80 77 73 70 72 71 68
215 213 210 203 195 192 193 188 184 183 183 186 187 183 180 181 179 181 188 192 199 196 186 180 171 174 182 179 169 163 158 153 150 145 141 141 144 146 140 133 133 133 134 140 144 148 141 125 116 104 101 101 96 97 102 106 109 107 99 91 86 85 88 94 99 93 85 85 89 93 93 92 92 91 89 88 88 87 84 80 78 74 72 71 68
216 214 210 202 193 189 187 181 179 180 177 179 185 188 188 189 191 194 201 205 207 202 192 184 178 179 185 184 176 169 163 157 157 154 150 147 145 146 144 139 140 142 148 157 164 166 155 126 114 112 117 123 117 112 109 110 115 113 104 97 92 88 88 91 95 93 90 89 87 88 89 88 88 87 88 89 89 89 86 81 79 77 74 72 70
215 214 211 203 194 188 184 180 180 182 181 182 188 194 195 196 200 202 208 214 213 207 198 187 182 183 185 188 182 173 166 162 162 160 156 150 144 143 146 149 151 154 160 165 169 169 162 135 116 116 121 132 144 142 132 124 126 123 114 110 103 96 93 94 97 98 95 91 89 87 87 86 85 84 84 84 83 84 86 83 80 78 75 74 73
214 214 211 204 196 189 185 183 187 191 191 191 196 202 201 200 203 206 207 209 210 206 200 192 186 184 184 186 183 175 169 166 166 164 159 154 148 145 149 155 159 161 163 166 168 166 160 144 127 121 120 128 151 160 163 157 151 145 128 124 121 107 100 99 101 101 98 95 93 89 89 89 87 87 86 83 79 77 78 81 83 81 78 76 75
215 213 211 206 199 192 189 191 196 198 194 193 198 203 203 202 203 206 204 199 200 200 195 192 186 182 183 184 182 176 171 170 170 166 162 158 153 151 153 157 159 161 162 163 167 165 157 150 141 125 116 120 131 155 177 176 173 173 157 143 137 121 110 109 106 105 101 97 97 96 94 93 90 90 90 88 83 75 69 72 79 83 82 79 77
214 214 211 208 201 194 195 198 193 189 186 186 189 195 197 197 194 198 203 198 195 194 188 187 185 180 180 180 179 177 173 172 172 170 165 162 160 158 159 158 158 160 160 161 165 163 158 154 147 133 121 114 108 125 174 179 180 182 176 164 152 138 126 124 120 116 108 100 105 108 101 92 89 92 89 86 85 78 68 65 72 79 82 83 81
214 214 211 208 202 195 198 196 187 182 181 183 186 191 196 193 188 191 199 197 192 190 186 183 181 175 171 174 178 178 175 174 171 170 169 167 165 167 168 162 157 160 159 159 161 159 157 155 155 154 143 124 112 122 147 171 180 184 185 181 170 162 150 145 142 131 117 106 104 100 93 88 86 93 89 81 82 84 77 70 70 71 72 81 87
215 214 211 209 202 194 196 192 189 187 182 184 186 191 198 194 189 190 192 193 193 191 186 180 174 166 164 169 177 179 179 178 174 171 172 171 169 171 173 167 161 162 160 159 156 149 148 144 149 161 163 156 132 123 124 136 155 174 184 189 187 182 181 171 158 146 131 115 101 86 80 81 59 77 92 83 77 88 88 78 73 68 66 75 83
214 213 209 206 199 192 190 188 194 195 188 187 186 192 198 194 191 189 185 185 187 189 186 177 162 149 153 161 171 181 186 185 178 174 174 174 172 171 172 170 165 164 163 159 148 131 118 110 115 132 147 159 148 130 126 123 129 144 162 176 186 189 193 187 172 165 158 141 118 100 72 54 11 57 105 96 86 98 96 85 79 72 70 77 83
212 209 205 202 196 191 186 187 198 200 196 192 193 201 198 192 192 189 187 185 180 182 182 170 150 136 140 147 154 170 185 188 182 178 179 179 178 178 175 171 170 170 165 156 141 119 106 98 100 115 121 124 129 131 129 123 121 121 127 142 160 175 185 186 181 175 169 161 150 137 77 48 87 119 123 112 114 125 114 101 92 82 81 87 87
217 210 206 202 194 191 191 196 204 204 199 192 197 203 195 194 195 188 187 188 183 180 176 167 150 143 141 128 124 130 145 172 180 181 185 186 185 188 187 180 176 174 167 156 142 123 106 97 95 106 112 117 125 127 124 115 110 108 106 110 124 145 158 166 169 167 166 164 157 139 115 106 110 116 123 116 117 132 131 121 109 97 94 93 88
219 213 207 203 196 196 200 205 209 208 203 196 199 200 195 197 197 188 183 183 184 180 176 171 157 149 138 119 108 92 100 123 152 178 190 193 194 195 196 192 183 177 172 162 153 138 111 100 107 111 117 125 130 128 123 116 110 106 103 101 105 118 132 140 143 145 147 146 141 138 130 125 124 123 126 120 119 129 131 128 124 113 103 95 92
216 215 205 203 201 201 203 207 213 214 211 205 203 200 196 196 195 193 186 178 177 179 180 178 166 156 138 85 83 87 96 128 116 148 189 197 202 201 199 194 188 187 182 170 163 154 125 118 124 126 132 135 134 131 125 120 116 112 108 105 104 106 114 122 126 128 129 134 140 139 133 131 130 120 106 104 110 119 124 126 126 122 114 102 93
212 213 204 204 203 202 206 211 217 217 214 210 206 203 200 199 198 198 194 188 182 181 183 182 176 169 154 136 118 106 226 149 131 143 187 193 203 204 200 195 192 194 186 172 173 172 147 140 142 141 144 142 136 132 128 124 121 119 116 114 112 112 113 114 119 123 123 130 138 134 129 128 118 106 101 100 102 108 117 127 130 128 125 113 87
209 205 201 204 203 204 211 216 217 216 215 214 211 208 205 203 203 202 203 201 190 181 184 186 183 179 167 156 148 177 170 148 133 145 186 189 203 206 204 203 196 186 175 173 180 183 178 168 155 150 151 148 143 138 135 133 130 128 126 126 127 126 124 119 119 122 123 127 133 130 127 122 111 105 106 110 112 114 122 133 141 143 144 133 97
204 198 203 207 208 210 215 219 220 218 217 216 215 214 211 206 206 208 209 206 194 183 184 187 186 187 187 177 169 202 176 168 163 156 167 189 198 199 204 213 201 178 173 181 185 186 190 187 168 159 157 154 152 150 147 145 142 140 139 140 143 143 139 132 126 125 128 131 132 130 126 120 114 110 106 110 117 123 132 142 151 159 156 130 97
198 199 208 211 213 217 219 222 223 221 220 219 217 217 216 210 209 212 211 207 203 194 187 187 189 192 196 198 223 231 186 182 180 169 151 144 170 186 195 206 204 184 182 192 192 191 194 188 175 165 162 162 163 164 162 160 156 153 155 159 165 166 153 143 138 135 135 136 135 133 131 123 115 111 107 107 113 122 133 139 141 140 129 106 88
200 205 212 214 216 220 221 222 223 222 223 223 219 218 220 217 213 214 212 210 210 205 196 194 196 197 197 203 210 183 180 186 182 169 153 141 160 173 173 178 190 189 195 198 196 197 195 186 177 171 170 171 174 179 177 176 170 161 163 172 178 172 159 150 147 146 144 143 143 138 133 125 117 112 108 107 111 117 120 119 116 111 102 90 78
206 211 215 216 218 221 223 222 224 226 226 226 223 221 222 222 220 218 216 213 212 210 206 205 205 202 200 200 187 166 167 174 176 172 163 149 150 156 163 165 166 171 190 194 191 197 196 187 182 183 186 185 185 189 190 185 175 167 169 175 176 167 157 154 152 151 150 149 146 141 132 125 118 111 107 107 109 111 109 106 101 95 88 79 71
208 212 214 215 218 222 226 227 228 229 228 228 227 225 224 222 222 221 219 216 213 212 211 210 209 206 204 205 198 185 180 180 180 178 172 155 135 142 163 167 162 159 177 190 190 196 197 193 192 192 193 192 190 193 196 189 174 168 173 176 174 166 157 155 154 155 156 153 147 140 133 127 121 115 112 111 109 105 103 99 95 90 83 76 69
209 212 213 214 219 223 225 228 231 232 230 232 230 228 228 225 223 223 220 217 215 213 212 212 212 209 206 209 212 207 201 196 189 184 183 175 160 151 160 162 157 154 171 182 189 198 200 199 200 196 191 191 193 197 198 189 177 173 178 180 181 174 165 161 159 159 157 152 146 138 133 128 122 118 113 110 108 106 104 101 97 92 84 76 67
210 213 215 216 220 224 227 229 232 233 233 234 232 228 228 227 226 225 222 218 215 215 215 215 216 213 210 210 215 218 214 207 196 190 189 178 162 151 155 160 150 144 168 179 187 200 205 204 203 198 195 196 196 198 199 191 184 182 185 188 188 181 173 166 160 157 151 145 141 135 131 128 123 122 118 115 114 110 105 97 89 83 76 70 64
213 215 216 217 221 226 231 235 236 236 235 234 234 232 229 228 227 225 222 219 217 216 218 218 218 216 212 212 216 221 218 210 200 193 190 180 167 156 147 148 142 139 158 180 187 196 206 207 205 199 200 204 201 198 197 196 194 191 191 191 185 177 170 163 157 154 149 143 140 137 133 133 131 129 123 118 115 109 102 94 86 80 74 68 63
215 217 217 219 223 227 233 238 239 239 236 233 233 232 229 227 226 224 221 219 217 217 217 218 218 215 211 212 217 221 217 208 201 199 196 189 179 168 155 140 128 136 146 174 192 201 207 207 205 203 205 207 205 201 198 198 202 198 192 187 178 168 163 162 160 158 153 149 148 145 141 138 135 130 125 120 118 113 106 100 95 88 82 73 65
218 218 218 220 224 227 232 235 238 237 234 232 231 229 229 226 222 220 219 218 216 217 218 218 218 214 210 212 217 218 214 208 205 205 201 195 189 179 168 158 150 144 142 164 197 210 214 210 206 206 210 211 208 205 201 200 204 203 193 184 176 168 165 167 167 164 161 160 158 153 147 143 141 138 135 133 129 123 117 112 107 100 91 79 67
221 219 219 223 223 225 229 231 232 233 231 231 229 227 227 223 218 216 216 214 214 216 218 218 217 214 210 210 214 213 209 208 210 208 203 198 192 186 180 172 164 154 147 175 201 208 212 213 210 207 209 212 212 208 205 204 206 206 196 184 179 176 174 174 174 173 172 171 168 162 159 157 157 157 154 153 150 146 143 136 131 121 102 80 60
224 224 224 224 223 223 227 229 229 229 230 231 229 226 224 220 217 217 214 211 212 213 214 216 215 213 211 210 213 213 209 208 211 208 204 199 195 190 186 181 175 172 168 164 199 208 206 210 213 213 209 208 210 209 206 205 208 207 199 190 187 185 186 185 184 184 183 181 179 176 176 175 176 177 178 183 185 186 191 192 194 200 213 267 325
228 229 229 227 226 226 225 225 227 228 229 229 228 225 221 217 215 215 214 212 210 209 210 213 214 213 212 212 214 214 213 210 210 209 204 201 199 194 188 185 185 189 184 165 172 210 207 209 213 214 212 208 208 208 205 205 209 208 203 199 195 194 195 195 193 194 194 192 192 192 193 193 194 197 201 208 214 218 223 227 232 240 249 260 271
231 232 232 230 228 225 221 221 225 225 223 222 223 222 218 216 215 214 213 210 208 210 209 209 212 213 213 214 214 215 215 212 210 209 206 203 203 198 194 191 192 198 196 181 173 201 207 213 215 212 213 211 209 208 205 205 208 206 205 205 203 202 204 203 202 203 202 202 204 205 207 208 210 214 218 224 230 234 238 241 244 249 254 257 262
231 231 232 230 227 224 222 222 222 219 216 214 214 217 216 217 217 215 213 210 210 213 210 208 210 212 213 213 214 216 216 214 212 210 206 203 203 202 201 200 200 204 204 194 187 187 199 212 216 212 212 211 210 209 206 207 207 205 205 207 207 209 210 210 211 211 210 210 213 216 219 222 225 228 232 237 242 246 249 250 253 256 259 261 264
226 226 225 224 224 225 224 222 218 216 215 212 210 212 215 219 218 215 215 213 215 215 211 210 210 209 210 212 213 214 213 213 212 211 208 200 198 201 203 205 207 208 208 204 198 190 193 204 211 212 213 212 211 210 208 210 209 207 207 208 211 214 216 217 218 218 218 219 221 225 229 233 237 241 245 249 253 256 259 260 262 264 266 267 268
219 217 217 217 220 223 223 220 218 219 218 215 213 211 213 218 216 214 215 214 215 215 212 211 209 207 208 209 212 212 211 211 211 211 212 205 200 200 202 207 210 210 211 212 210 206 199 200 207 213 214 212 212 212 213 214 213 213 213 213 216 219 220 221 223 225 226 227 230 233 236 240 244 248 252 256 260 263 266 268 270 271 271 272 272
216 211 213 214 217 219 220 219 220 221 218 215 215 214 214 216 215 213 213 213 213 214 212 211 210 208 208 209 211 212 212 212 211 210 212 209 206 206 206 208 210 211 213 217 220 221 212 205 208 214 216 215 212 213 216 216 217 219 219 219 222 225 226 227 229 231 232 235 238 240 243 247 250 253 256 259 262 265 268 271 273 274 274 275 275
221 212 212 214 216 217 217 218 219 218 215 211 210 211 210 210 213 214 214 212 213 213 213 215 214 211 209 210 211 213 215 215 213 211 210 207 206 208 210 210 208 210 215 217 221 225 225 220 214 212 215 216 213 214 218 219 218 220 223 225 227 230 232 233 235 237 237 239 243 245 249 251 254 257 259 262 265 267 270 271 273 274 275 275 276
222 213 212 213 215 217 217 217 216 213 211 210 209 211 211 208 210 214 216 216 215 214 214 216 215 212 210 212 212 213 215 215 214 213 211 209 209 210 211 210 208 211 216 218 221 227 232 230 220 211 212 213 211 213 217 220 221 222 224 227 230 233 235 237 240 241 241 243 245 248 252 255 258 260 263 265 268 270 271 272 273 274 275 275 275
217 209 209 211 211 214 216 216 214 211 210 212 212 214 217 215 213 213 214 215 214 214 215 212 211 212 215 217 217 216 216 215 216 216 213 212 213 213 212 210 209 212 217 219 222 227 229 226 218 214 213 210 210 213 218 221 224 227 228 231 235 237 237 240 243 244 244 246 248 251 254 257 260 262 263 265 267 268 269 270 271 273 273 273 274
215 211 209 208 207 210 214 215 214 212 212 214 214 216 219 220 218 214 212 212 211 210 212 210 211 215 217 218 218 218 217 215 216 218 217 217 215 212 209 207 208 212 215 217 222 224 223 218 215 215 213 209 208 211 217 219 221 227 230 232 237 240 240 242 247 249 249 249 251 254 256 258 261 262 264 265 265 265 267 268 270 271 271 271 272
215 213 210 209 208 209 210 212 215 215 214 215 214 216 217 217 217 215 210 209 208 207 208 209 213 216 216 215 216 217 216 216 218 221 221 221 218 215 211 205 206 212 216 218 222 219 215 212 211 212 210 208 206 204 209 215 220 228 231 231 237 244 246 247 251 253 254 255 257 259 261 263 264 266 267 268 268 268 268 269 270 270 271 272 273
213 213 214 213 211 211 210 210 212 213 213 214 215 217 218 215 214 213 212 212 209 207 206 206 208 212 214 216 217 218 217 217 216 213 211 213 214 219 220 211 207 212 217 219 220 215 210 209 210 207 205 210 211 208 212 220 224 227 229 230 237 245 249 255 260 262 262 262 263 265 271 273 272 273 274 273 273 273 273 273 274 275 277 278 278
213 213 213 212 209 209 209 208 208 210 210 211 214 219 220 217 215 214 214 213 210 208 209 207 207 210 214 217 218 218 216 210 206 204 203 202 204 210 213 207 203 209 218 222 218 211 208 209 210 208 210 215 217 216 219 224 227 230 233 235 240 246 248 251 261 268 271 273 271 271 279 285 282 281 282 281 280 279 278 279 280 282 283 283 283
209 208 206 205 201 200 201 202 202 204 205 203 201 203 205 207 211 214 215 211 207 208 209 206 205 206 207 209 210 210 207 199 199 198 183 163 166 178 183 184 185 193 210 222 218 210 207 208 206 207 215 221 222 221 224 229 234 240 246 247 247 249 247 244 251 264 277 287 284 277 284 294 294 291 292 289 286 286 285 285 286 287 288 287 287
203 202 199 197 193 192 194 195 195 195 195 192 185 178 178 184 193 201 207 208 206 205 203 197 194 194 194 194 193 192 192 189 187 181 163 144 141 145 144 142 142 144 157 177 192 197 202 204 196 190 195 198 190 189 200 212 222 229 236 243 247 249 252 253 258 269 281 291 292 286 286 293 295 293 290 288 287 288 287 288 289 291 291 292 291
193 193 192 191 189 187 188 188 187 187 189 189 184 178 174 176 180 183 189 195 197 193 188 184 183 180 179 178 175 172 173 172 170 167 162 155 150 144 138 132 126 125 129 131 136 144 154 170 170 154 144 150 153 153 160 175 191 201 206 216 232 245 254 258 264 272 279 285 293 291 283 285 290 289 287 287 290 291 290 291 292 291 291 292 292
177 180 181 183 183 180 178 177 177 177 181 185 187 186 186 186 182 175 173 176 178 175 173 172 171 168 165 165 163 161 161 161 162 164 161 157 152 145 137 130 124 122 120 116 114 119 125 135 139 131 128 133 138 145 160 180 198 220 232 239 255 263 266 272 275 279 283 286 293 288 278 286 295 290 289 295 297 295 295 294 293 292 292 291 290
161 162 162 166 168 166 166 166 166 165 167 175 181 183 188 193 190 178 169 165 163 160 157 157 156 154 154 155 154 153 152 152 155 159 159 159 154 144 134 127 123 120 114 106 105 106 109 114 117 119 124 125 136 169 226 255 257 269 270 270 278 280 286 291 288 289 294 297 309 306 286 289 299 294 293 302 303 299 299 297 293 295 297 295 293
142 136 133 137 144 148 150 152 154 152 150 158 168 172 179 189 192 184 174 164 156 151 146 144 144 144 143 145 145 145 144 143 144 149 156 160 155 144 134 125 119 114 108 104 105 105 103 106 107 106 106 98 93 87 325 291 281 282 270 275 302 309 322 332 311 306 315 322 346 340 308 294 306 306 303 307 305 300 300 300 299 301 302 303 304
128 116 107 100 107 122 127 128 136 141 139 144 157 164 167 176 183 183 178 166 152 145 141 138 138 138 136 136 138 140 138 137 138 142 150 156 150 142 136 128 117 108 104 105 109 108 107 107 105 105 104 99 98 93 82 77 61 34 33 41 26 10 19 30 19 346 348 4 4 345 327 316 322 322 317 314 308 303 304 305 306 306 305 307 307
122 113 103 88 81 90 101 107 115 126 129 135 147 155 159 164 166 168 170 164 150 141 139 137 134 133 132 131 133 135 133 132 135 136 139 146 142 136 138 138 123 108 105 112 116 117 118 115 111 111 108 101 98 93 85 77 63 49 48 46 34 25 32 34 26 15 10 358 348 342 332 326 328 330 330 325 313 309 312 312 310 310 308 307 305